Dashboard

GC5G8J5 - LSQ #24C

by listel

published: Wed, 24 Dec 2014 2:01:12 pm

Certitude Solution



Puzzle stats
730 Woo-Hoo!
795 D'Oh!
Latest activity:
Tue, 14 Aug 2018
Note that some of those attempts may have been anonymous.



You can subscribe to an RSS feed for:
 this puzzle
 listel's puzzles
 puzzles in N50 E012 quadrangle
 puzzles in Sachsen
 all puzzles

Your geocaching name is unknown, please sign in to identify yourself. How does it work?

Puzzle solvers, you can certify your solution here:
Show solution 
Show attempts 

(keyword required)
  Stay anonymous

Certified solvers

RankUserTime (Berlin, Europe)
1.iwasanetWed, 24 Dec 2014 2:01:47 pm
2.vogtlandachseWed, 24 Dec 2014 2:01:56 pm
3.SchnuffelpiepsWed, 24 Dec 2014 2:02:02 pm
4.Bleche112Wed, 24 Dec 2014 2:02:09 pm
5.HDFlerWed, 24 Dec 2014 2:02:14 pm
6.WaldesmenschWed, 24 Dec 2014 2:02:26 pm
7.WaldesmenschWed, 24 Dec 2014 2:02:26 pm
8.dr_ben_777Wed, 24 Dec 2014 2:02:32 pm
9.andee76Wed, 24 Dec 2014 2:02:35 pm
10.jay-kevWed, 24 Dec 2014 2:02:38 pm
11.FantalismusWed, 24 Dec 2014 2:02:39 pm
12.Cora292Wed, 24 Dec 2014 2:03:26 pm
13.cedi99Wed, 24 Dec 2014 2:03:42 pm
14.beach38Wed, 24 Dec 2014 2:04:00 pm
15.Team Hardwarefr@nzWed, 24 Dec 2014 2:04:07 pm
16.S&T147Wed, 24 Dec 2014 2:04:11 pm
17.Lotte2011Wed, 24 Dec 2014 2:04:22 pm
18.superbone99Wed, 24 Dec 2014 2:04:38 pm
19.Blutwurz76Wed, 24 Dec 2014 2:04:44 pm
20.dr ReneWed, 24 Dec 2014 2:05:04 pm
21.biowusellaWed, 24 Dec 2014 2:05:25 pm
22.zwenelWed, 24 Dec 2014 2:05:40 pm
23.DrehiczWed, 24 Dec 2014 2:06:23 pm
24.chrödfro08Wed, 24 Dec 2014 2:06:53 pm
25.CGsylliWed, 24 Dec 2014 2:07:33 pm
26.AltPlauenWed, 24 Dec 2014 2:08:03 pm
27.JujahWed, 24 Dec 2014 2:08:25 pm
28.auge 2865Wed, 24 Dec 2014 2:08:46 pm
29.KaTi-95Wed, 24 Dec 2014 2:08:50 pm
30.feesissWed, 24 Dec 2014 2:09:50 pm
31.Volk-airWed, 24 Dec 2014 2:11:01 pm
32.Schlumpf1984Wed, 24 Dec 2014 2:11:14 pm
33.PulchenWed, 24 Dec 2014 2:11:57 pm
34.generalskotomWed, 24 Dec 2014 2:12:03 pm
35.Husti35Wed, 24 Dec 2014 2:13:52 pm
36.Der_HolzmichelWed, 24 Dec 2014 2:19:17 pm
37.PostigelWed, 24 Dec 2014 2:19:18 pm
38.WerkstrollWed, 24 Dec 2014 2:24:30 pm
39.VogtlandschreckWed, 24 Dec 2014 2:25:27 pm
40.Ger-BiWed, 24 Dec 2014 2:28:22 pm
41.Waldwichtel7Wed, 24 Dec 2014 2:28:26 pm
42.ungmicWed, 24 Dec 2014 2:29:01 pm
43.LädlasucherWed, 24 Dec 2014 2:33:38 pm
44.De WasserrattenWed, 24 Dec 2014 2:34:11 pm
45.OmiundOpiWed, 24 Dec 2014 2:34:42 pm
46.raederbossWed, 24 Dec 2014 2:36:24 pm
47.sa-roWed, 24 Dec 2014 2:36:37 pm
48.Die MondputzerWed, 24 Dec 2014 2:39:08 pm
49.alexjeannyWed, 24 Dec 2014 2:40:35 pm
50.muldenmystWed, 24 Dec 2014 2:41:39 pm
51.Flying Eagles 4Wed, 24 Dec 2014 2:42:18 pm
52.Team EidechsenWed, 24 Dec 2014 2:45:08 pm
53.fafnir122Wed, 24 Dec 2014 2:53:51 pm
54.ceryWed, 24 Dec 2014 2:54:12 pm
55.Mahadma_GanjaWed, 24 Dec 2014 2:57:00 pm
56.☠ CosmotiC ☠Wed, 24 Dec 2014 3:03:37 pm
57.La.Re.Wed, 24 Dec 2014 3:07:37 pm
58.LyssiWed, 24 Dec 2014 3:10:43 pm
59.DarkDracoWed, 24 Dec 2014 3:12:30 pm
60.andimatoWed, 24 Dec 2014 3:20:07 pm
61.mackloosWed, 24 Dec 2014 3:21:00 pm
62.Namenloser.HeldWed, 24 Dec 2014 3:22:40 pm
63.der EisbaerWed, 24 Dec 2014 3:23:33 pm
64.Jawa-Cacher12Wed, 24 Dec 2014 3:28:51 pm
65.pfadfinder500Wed, 24 Dec 2014 3:28:55 pm
66.Lordi1983Wed, 24 Dec 2014 3:43:52 pm
67.Andso80Wed, 24 Dec 2014 3:44:07 pm
68.ERZgeo'11Wed, 24 Dec 2014 3:51:05 pm
69.Horscht17&CoWed, 24 Dec 2014 3:58:12 pm
70.fussel140Wed, 24 Dec 2014 4:02:16 pm
71.inreallifeWed, 24 Dec 2014 4:05:58 pm
72.SvesucofWed, 24 Dec 2014 4:06:24 pm
73.SchlumselWed, 24 Dec 2014 4:07:19 pm
74.die eckiesWed, 24 Dec 2014 4:29:27 pm
75.inra66Wed, 24 Dec 2014 4:33:37 pm
76.black-bladeWed, 24 Dec 2014 4:42:00 pm
77.Stecho77+FrauchenWed, 24 Dec 2014 4:44:53 pm
78.kleinmanu78Wed, 24 Dec 2014 4:45:54 pm
79.caneizwergWed, 24 Dec 2014 5:09:30 pm
80.Geob@rWed, 24 Dec 2014 5:13:50 pm
81.ildi2Wed, 24 Dec 2014 5:22:05 pm
82.KäschkerneWed, 24 Dec 2014 5:24:06 pm
83.tschango1Wed, 24 Dec 2014 7:43:21 pm
84.vb26Wed, 24 Dec 2014 9:39:25 pm
85.tv0208Wed, 24 Dec 2014 9:48:57 pm
86.Fire Chief 112Wed, 24 Dec 2014 9:59:12 pm
87.AR898Wed, 24 Dec 2014 10:00:36 pm
88.WeingeisterWed, 24 Dec 2014 10:58:23 pm
89.kire1974Wed, 24 Dec 2014 11:15:51 pm
90.PiepsmausThu, 25 Dec 2014 12:23:08 am
91.RemtengrünerThu, 25 Dec 2014 7:55:16 am
92.Ylv + GinThu, 25 Dec 2014 8:42:05 am
93.kampe008Thu, 25 Dec 2014 8:52:14 am
94.Falk vom WolfsteichThu, 25 Dec 2014 8:58:24 am
95.Ouzo TeamThu, 25 Dec 2014 8:59:45 am
96.Team SüdvorstadtThu, 25 Dec 2014 9:14:57 am
97.Feuer+FlammeThu, 25 Dec 2014 9:47:55 am
98.manzelsThu, 25 Dec 2014 9:48:50 am
99.El_RolfoThu, 25 Dec 2014 10:11:09 am
100.PRCI2013Thu, 25 Dec 2014 10:16:11 am
101.slydaggyThu, 25 Dec 2014 10:28:23 am
102.SteppentrittThu, 25 Dec 2014 10:41:43 am
103.RokatosThu, 25 Dec 2014 10:59:25 am
104.toze1985Thu, 25 Dec 2014 11:03:16 am
105.De KlopphölzerThu, 25 Dec 2014 11:25:57 am
106.suggar1Thu, 25 Dec 2014 11:37:36 am
107.HeliasThu, 25 Dec 2014 1:02:12 pm
108.TriRubinThu, 25 Dec 2014 1:44:24 pm
109.hub90Thu, 25 Dec 2014 1:52:45 pm
110.oldGeili60Thu, 25 Dec 2014 2:39:19 pm
111.Klecks89Thu, 25 Dec 2014 3:32:44 pm
112.koenigasThu, 25 Dec 2014 3:41:20 pm
113.WasserturmRCThu, 25 Dec 2014 4:00:42 pm
114.FRFrankThu, 25 Dec 2014 7:28:32 pm
115.DieSchmidtisThu, 25 Dec 2014 7:31:38 pm
116.Candace+Agent PThu, 25 Dec 2014 8:23:58 pm
117.Roadrunner86Thu, 25 Dec 2014 8:32:20 pm
118.WaschbärfamilieThu, 25 Dec 2014 9:37:18 pm
119.Team-WSThu, 25 Dec 2014 9:52:34 pm
120.Porks89Fri, 26 Dec 2014 12:15:03 am
121.SchuziFri, 26 Dec 2014 7:53:32 am
122.Dine1980Fri, 26 Dec 2014 9:20:49 am
123.JOHROBSFri, 26 Dec 2014 9:53:53 am
124.Waldschrat-G1Fri, 26 Dec 2014 10:51:11 am
125.KeyzedFri, 26 Dec 2014 11:16:33 am
126.Husti53Fri, 26 Dec 2014 11:42:34 am
127.8672diggerFri, 26 Dec 2014 12:18:21 pm
128.shadow6Fri, 26 Dec 2014 2:25:06 pm
129.Lucarelli99Fri, 26 Dec 2014 2:58:33 pm
130.hakkomaenFri, 26 Dec 2014 4:28:55 pm
131.IxxxmalFri, 26 Dec 2014 6:36:09 pm
132.SchwarzerSteigerFri, 26 Dec 2014 7:33:28 pm
133.Gute FeeFri, 26 Dec 2014 7:50:57 pm
134.Berger de BrieFri, 26 Dec 2014 8:15:58 pm
135.kru12Fri, 26 Dec 2014 8:16:29 pm
136.R&M007Fri, 26 Dec 2014 10:51:39 pm
137.Bull&CatSat, 27 Dec 2014 1:56:12 pm
138.michelmaxSat, 27 Dec 2014 4:32:38 pm
139.sbg2009Sun, 28 Dec 2014 6:12:37 pm
140.Ghost13_13Sun, 28 Dec 2014 8:17:47 pm
141.GYFTMon, 29 Dec 2014 2:12:25 pm
142.bazille1Mon, 29 Dec 2014 3:24:16 pm
143.Dark-UnicornMon, 29 Dec 2014 9:45:58 pm
144.KeriandTue, 30 Dec 2014 8:59:23 am
145.tuditudiTue, 30 Dec 2014 10:40:57 am
146.F-L-O-STue, 30 Dec 2014 2:17:30 pm
147.DerMicha75Tue, 30 Dec 2014 10:24:38 pm
148.didikingThu, 1 Jan 2015 12:29:18 pm
149.T.bonsaiThu, 1 Jan 2015 5:04:10 pm
150.AltchemnitzerThu, 1 Jan 2015 5:24:44 pm
151.Kreisverkehr_BSGFri, 2 Jan 2015 10:19:17 pm
152.ERZ-SiebiFri, 2 Jan 2015 10:56:55 pm
153.friedolinaSun, 4 Jan 2015 5:40:52 pm
154.Harold's HawksMon, 5 Jan 2015 6:47:21 am
155.lets.go.05Mon, 5 Jan 2015 8:05:07 am
156.elsi5352Mon, 5 Jan 2015 12:06:07 pm
157.topmoppelTue, 6 Jan 2015 4:07:12 pm
158.FaMüKiWed, 7 Jan 2015 6:02:39 pm
159.boephFri, 9 Jan 2015 8:49:40 pm
160.TuJuTSat, 10 Jan 2015 4:02:31 pm
161.sveni1980Sat, 10 Jan 2015 8:51:02 pm
162.hcwestSun, 11 Jan 2015 1:11:36 am
163.NC-CacherSun, 11 Jan 2015 9:30:57 pm
164.king-tonMon, 12 Jan 2015 12:08:43 pm
165.will_nichTue, 13 Jan 2015 7:44:16 pm
166.urmel.1Thu, 15 Jan 2015 3:41:20 pm
167.Andreas_1978Fri, 16 Jan 2015 12:57:00 pm
168.Friesel 98Sun, 18 Jan 2015 12:39:59 pm
169.compiprofiMon, 19 Jan 2015 2:14:47 pm
170.FinkenkrugerMon, 26 Jan 2015 12:02:17 am
171.Impossible IdiotsTue, 27 Jan 2015 8:01:20 am
172.xRazielxThu, 29 Jan 2015 6:50:12 pm
173.Laola65Tue, 3 Feb 2015 11:24:58 pm
174.HeckertfreundMon, 23 Feb 2015 6:29:08 pm
175.TimakeSun, 1 Mar 2015 9:09:24 pm
176.Team PriwinMon, 16 Mar 2015 2:34:39 pm
177.esox09/nena3011Sat, 28 Mar 2015 1:22:51 pm
178.-Vendetta-Thu, 9 Apr 2015 4:14:55 am
179.wiggyleinThu, 9 Apr 2015 7:47:37 pm
180.KampffasanFri, 10 Apr 2015 5:56:35 am
181.jensreisenFri, 10 Apr 2015 11:04:19 pm
182.MigAndiThu, 16 Apr 2015 12:19:18 pm
183.ubiqueThu, 16 Apr 2015 12:34:31 pm
184.max 1Fri, 17 Apr 2015 5:50:25 pm
185.SchwalbenhorstMon, 27 Apr 2015 6:10:03 pm
186.MasterCrawlerThu, 7 May 2015 11:22:18 am
187.Orchidee_JenaThu, 14 May 2015 9:35:40 pm
188.funfamsTue, 19 May 2015 4:23:00 pm
189.QUlDproQUOFri, 3 Jul 2015 7:36:21 pm
190.CachewürmerThu, 16 Jul 2015 6:05:17 pm
191.jo_muSun, 19 Jul 2015 12:58:33 pm
192.BirnsinchenSat, 25 Jul 2015 11:04:22 pm
193.GeonizerSun, 26 Jul 2015 11:59:12 pm
194.Tiger760Fri, 7 Aug 2015 9:38:35 pm
195.GaerteltierSun, 13 Sep 2015 12:00:15 pm
196.KLR-LEThu, 17 Sep 2015 9:44:06 pm
197.WiesawieMon, 21 Sep 2015 8:54:23 pm
198.EllisGCWed, 23 Sep 2015 8:01:59 pm
199.laleThu, 24 Sep 2015 1:04:49 am
200.hazina malaikaWed, 30 Sep 2015 12:18:21 pm
201.wirhornsTue, 6 Oct 2015 9:51:47 pm
202.Die ErdbärenSat, 17 Oct 2015 6:37:47 pm
203.AlexN2909Tue, 27 Oct 2015 6:40:12 pm
204.LungwitzerFri, 6 Nov 2015 4:57:54 pm
205.Cache-MichlSat, 21 Nov 2015 4:25:48 pm
206.HonsakWed, 2 Dec 2015 9:26:25 pm
207.luco235Wed, 9 Dec 2015 6:55:17 am
208.Resi6872Sun, 20 Dec 2015 2:02:17 pm
209.MittelblockMon, 21 Dec 2015 1:50:52 am
210.WaldwuffelzSat, 26 Dec 2015 11:50:45 pm
211.Krissi5Sun, 27 Dec 2015 12:39:05 pm
212.Mäuser & RudiTue, 29 Dec 2015 9:52:33 am
213.Buckel01Fri, 1 Jan 2016 6:27:04 pm
214.JG-Bodo&CoWed, 6 Jan 2016 12:21:27 am
215.moveeWed, 6 Jan 2016 4:48:22 pm
216.vbikerFri, 8 Jan 2016 8:07:38 am
217.die-tierfreundeMon, 11 Jan 2016 6:20:58 pm
218.ArzrKMon, 11 Jan 2016 7:39:48 pm
219.Team_babsiThu, 14 Jan 2016 3:52:17 pm
220.ScreensizeMon, 18 Jan 2016 4:29:17 pm
221.ZweilaenderteamSat, 23 Jan 2016 10:07:05 am
222.CanaxThu, 28 Jan 2016 3:13:00 pm
223.Engelchen70Sun, 31 Jan 2016 8:48:00 pm
224.Ha&SiTue, 16 Feb 2016 9:00:42 pm
225.NeustädterSun, 21 Feb 2016 9:34:44 pm
226.jezci-sokolovWed, 24 Feb 2016 10:04:44 am
227.ChestysTue, 1 Mar 2016 5:43:15 pm
228.kirschen57Sat, 12 Mar 2016 8:08:57 pm
229.sindydanielTue, 22 Mar 2016 2:06:44 pm
230.bio-biene/WilliFri, 25 Mar 2016 7:52:03 pm
231.FLO & CHRISSun, 27 Mar 2016 5:32:48 pm
232.FabSylWed, 6 Apr 2016 1:59:12 pm
233.ErnaM & EmmaAWed, 6 Apr 2016 2:33:29 pm
234.Juana1975Wed, 6 Apr 2016 3:30:33 pm
235.KC88Fri, 8 Apr 2016 9:50:24 pm
236.lahabana63Sun, 10 Apr 2016 6:54:37 pm
237.Team Wenke68Mon, 18 Apr 2016 12:47:21 pm
238.GarageWerdauSat, 23 Apr 2016 10:09:41 pm
239.Enno_SMon, 25 Apr 2016 7:36:38 pm
240.HumanophobFri, 13 May 2016 12:01:48 am
241.halsbacherThu, 9 Jun 2016 2:13:57 pm
242.chaos2206 & cat2111Fri, 17 Jun 2016 11:04:46 pm
243.racherkerzelWed, 29 Jun 2016 7:26:26 pm
244.hoschi_fgWed, 6 Jul 2016 8:52:37 am
245.Team sissifalkeWed, 6 Jul 2016 1:06:09 pm
246.Onkel JensTue, 12 Jul 2016 11:53:02 am
247.wieselfamilyWed, 13 Jul 2016 7:31:47 pm
248.clajariSun, 24 Jul 2016 3:49:12 pm
249.AyalenaTue, 6 Sep 2016 7:14:00 am
250.Kuchen-KurtSun, 11 Sep 2016 3:13:41 pm
251.MC tapfer & clumsyMon, 12 Sep 2016 7:02:23 pm
252.crazybastiWed, 14 Sep 2016 1:41:29 pm
253.EbersbacherSun, 18 Sep 2016 5:54:54 pm
254.dev46Mon, 26 Sep 2016 7:56:54 am
255.doktorhaasSun, 9 Oct 2016 11:20:26 pm
256.detgottThu, 20 Oct 2016 9:21:33 pm
257.OVL1Sun, 30 Oct 2016 10:48:12 am
258.talblickrangerWed, 2 Nov 2016 2:28:53 pm
259.Kaspar77Sun, 6 Nov 2016 9:00:58 pm
260.LeerensucherSun, 27 Nov 2016 6:48:38 pm
261.ElfieneSun, 4 Dec 2016 2:44:56 pm
262.#iThu, 8 Dec 2016 9:36:51 pm
263.Avery7981Sat, 10 Dec 2016 8:09:44 pm
264.gärtnerin85Mon, 12 Dec 2016 4:20:03 am
265.hillmen553teamSun, 18 Dec 2016 10:47:13 pm
266.saudade369Wed, 21 Dec 2016 8:05:31 pm
267.britispritiWed, 28 Dec 2016 8:26:53 pm
268.snick39Fri, 30 Dec 2016 2:10:46 pm
269.Team R.R.N.A.Fri, 6 Jan 2017 2:18:17 pm
270.Kingpin238Fri, 6 Jan 2017 8:32:41 pm
271.Mr. HulkFri, 13 Jan 2017 8:02:52 am
272.FinandantSat, 14 Jan 2017 8:16:58 pm
273.cada1106Sun, 29 Jan 2017 6:58:03 pm
274.MiP_76Tue, 7 Feb 2017 10:38:56 pm
275.ml8108115Thu, 9 Feb 2017 11:44:39 am
276.meyfi2000Sat, 11 Feb 2017 7:15:56 pm
277.Beate112Fri, 24 Feb 2017 7:03:11 pm
278.hool0605Thu, 2 Mar 2017 12:48:41 am
279.madcoSun, 5 Mar 2017 9:15:38 am
280.Tristi2001Thu, 9 Mar 2017 5:00:14 pm
281.Schwarze AjahTue, 21 Mar 2017 7:16:37 pm
282.NadderlieWed, 29 Mar 2017 7:34:45 pm
283.Frau GehTue, 4 Apr 2017 4:28:39 pm
284.scrabble52Wed, 5 Apr 2017 8:33:37 pm
285.MobendorferWed, 5 Apr 2017 9:39:37 pm
286.Fietje1Sat, 8 Apr 2017 9:45:11 pm
287.Tweety78Sun, 21 May 2017 6:02:02 pm
288.Tus74Mon, 5 Jun 2017 3:08:01 pm
289.Blümchen_02Sat, 17 Jun 2017 6:25:01 pm
290.Stefan28 & Co.Fri, 30 Jun 2017 6:43:37 pm
291.search_gemSun, 2 Jul 2017 7:21:25 pm
292.PhönixtränenWed, 26 Jul 2017 10:35:08 pm
293.Team_KreiBisTue, 1 Aug 2017 8:41:07 pm
294.T A R D I SSat, 16 Sep 2017 8:39:32 pm
295.ForestSheriffWed, 20 Sep 2017 8:08:37 pm
296.Rose38Fri, 22 Sep 2017 2:16:00 pm
297.FamilieHThu, 28 Sep 2017 9:07:33 pm
298.regiluwiThu, 12 Oct 2017 6:39:14 pm
299.whitestoneviewMon, 30 Oct 2017 7:06:32 pm
300.nikolausi_1Fri, 3 Nov 2017 10:57:34 am
301.e-r-nFri, 3 Nov 2017 11:06:01 am
302.sisa2011Mon, 13 Nov 2017 12:00:44 pm
303.Etsin32Mon, 20 Nov 2017 11:01:18 pm
304.MeL_DezignsMon, 27 Nov 2017 8:46:57 pm
305.Eichhörnchen53Tue, 28 Nov 2017 3:58:45 pm
306.metalzwerg95Sat, 9 Dec 2017 12:06:12 pm
307.camperfamilieMon, 18 Dec 2017 10:57:28 am
308.Drache61Sun, 24 Dec 2017 11:44:54 pm
309.mammutedgarMon, 25 Dec 2017 5:48:02 pm
310.EBSSgeoTue, 26 Dec 2017 8:30:37 pm
311.J_E_L_MWed, 27 Dec 2017 3:00:53 pm
312.jukebox1971Fri, 29 Dec 2017 12:08:49 am
313.ellamarieFri, 29 Dec 2017 4:22:14 pm
314.DL1RXMon, 15 Jan 2018 5:29:29 pm
315.Puste66blumeMon, 15 Jan 2018 8:18:26 pm
316.andrea.Sat, 20 Jan 2018 6:20:38 pm
317.Hänsel&Gretel.Mon, 22 Jan 2018 5:28:21 pm
318.AnTiLeMon, 22 Jan 2018 6:24:31 pm
319.Dynamo'sFri, 26 Jan 2018 10:15:07 am
320.UKTS3Sat, 27 Jan 2018 3:03:12 pm
321.wickiesollstSat, 27 Jan 2018 7:48:15 pm
322.mugteamWed, 7 Feb 2018 9:44:43 am
323.agashWed, 7 Feb 2018 10:17:49 pm
324.Howies_CrewSat, 10 Feb 2018 11:36:23 am
325.meik&isaMon, 12 Feb 2018 12:31:43 am
326.Lambo01Wed, 14 Feb 2018 8:58:49 pm
327.Stumpfi2109Sun, 25 Feb 2018 9:45:47 pm
328.capitanok9Mon, 26 Feb 2018 1:02:26 pm
329.feldtheoretikerWed, 28 Feb 2018 12:27:54 pm
330.nordicwalkWed, 28 Feb 2018 8:43:10 pm
331.luckykaeferThu, 1 Mar 2018 5:58:07 pm
332.WolleDSat, 3 Mar 2018 3:42:58 pm
333.WILK13Sat, 3 Mar 2018 3:43:04 pm
334.uwe-sauerlandSat, 3 Mar 2018 3:43:23 pm
335.Zottel43Sun, 4 Mar 2018 11:33:08 am
336.Nilpferd1607Sun, 4 Mar 2018 3:38:23 pm
337.Die MoosmutzelThu, 8 Mar 2018 11:50:34 pm
338.Yogabine und RomeckFri, 9 Mar 2018 6:33:28 pm
339.Pinky_&_The_BrainTue, 13 Mar 2018 1:36:11 pm
340.VT1302Thu, 15 Mar 2018 5:35:37 pm
341.LaRu0202Thu, 15 Mar 2018 6:46:18 pm
342.CastParoFri, 16 Mar 2018 3:02:23 pm
343.bobifitSat, 17 Mar 2018 3:28:18 pm
344.DerOtti1Sun, 18 Mar 2018 7:49:37 pm
345.ts150Mon, 19 Mar 2018 9:04:27 pm
346.Ramersdorfer01Tue, 20 Mar 2018 10:27:31 pm
347.PatSchzzzWed, 21 Mar 2018 5:28:09 pm
348.Nev5Fri, 23 Mar 2018 5:11:59 pm
349.KaTi aus DDWed, 28 Mar 2018 2:10:04 pm
350.DanRikSun, 1 Apr 2018 1:00:19 pm
351.Team TUFSun, 1 Apr 2018 9:10:48 pm
352.DL1DWTFri, 27 Apr 2018 12:55:02 pm
353.verskp370Fri, 27 Apr 2018 7:51:37 pm
354.kwc_heroTue, 8 May 2018 9:40:24 pm
355.Spio007Fri, 11 May 2018 7:50:28 pm
356.NovesiacacherSat, 12 May 2018 11:55:39 am
357.sanimeanSat, 12 May 2018 3:20:16 pm
358.HalloratzSun, 13 May 2018 7:47:59 am
359.derek78Mon, 14 May 2018 11:17:48 am
360.AalmoeckTue, 15 May 2018 9:43:36 pm
361.Mr-CuttyThu, 17 May 2018 7:36:33 pm
362.SoSaMoSat, 19 May 2018 10:28:23 am
363.biggi184Sun, 20 May 2018 7:12:20 pm
364.Keninet0815Mon, 21 May 2018 5:14:56 pm
365.Tomb Raider4Tue, 22 May 2018 2:30:21 pm
366.HauffisTue, 22 May 2018 5:52:54 pm
367.kobaltgeisterWed, 23 May 2018 6:33:32 pm
368.nattinWed, 23 May 2018 10:02:53 pm
369.megawunkWed, 23 May 2018 10:43:19 pm
370.Team.SchubiThu, 24 May 2018 10:54:13 am
371.Lady MilaThu, 24 May 2018 10:32:03 pm
372.lynx-eyeFri, 25 May 2018 4:35:18 pm
373.rothi23Fri, 25 May 2018 5:10:00 pm
374.Eichhörnchen-DDFri, 25 May 2018 6:10:27 pm
375.Nachtfalke322Sun, 27 May 2018 2:22:53 pm
376.JeFriKaLoSun, 27 May 2018 3:01:31 pm
377.BuschwieseSun, 27 May 2018 3:21:12 pm
378.ZG51Fri, 1 Jun 2018 8:37:00 am
379.MPX8Tue, 12 Jun 2018 10:29:30 am
380.steroli8005Fri, 15 Jun 2018 8:17:50 am
381.Panther-in-PinkSat, 16 Jun 2018 10:40:06 pm
382.OrientexpressSat, 16 Jun 2018 10:40:38 pm
383.tassimoMon, 18 Jun 2018 9:10:35 pm
384.SentahundTue, 26 Jun 2018 5:02:33 am
385.DieSandmiepseThu, 28 Jun 2018 1:09:34 am
386.Skydive-SexyMon, 9 Jul 2018 4:09:10 pm
387.Team MaggyWed, 11 Jul 2018 2:34:11 pm
388.Team HermannThu, 12 Jul 2018 9:39:59 am
389.KleinzschachwitzerWed, 18 Jul 2018 8:25:05 pm
390.kiwiDDTue, 7 Aug 2018 11:19:25 pm
391.andregaThu, 9 Aug 2018 9:13:16 am
392.himbeergelbThu, 9 Aug 2018 10:06:27 am
393.DoriSinghaFri, 10 Aug 2018 9:50:55 am
394.Theresi 7Fri, 10 Aug 2018 4:26:10 pm
395.3MKTue, 14 Aug 2018 9:04:57 pm